| time (UTC) | temp F | wind direction | speed knots | gust knots | rain 1hr in | rain 24hr in | rain mn in | humidity % | barometer mb |
| 20260902051535 | 61 | 140 | 6.1 | 7.0 | 0.00 | 0.00 | 0.00 | 99 | 1026.2 |
| 20260902051034 | 62 | 156 | 2.6 | 2.6 | 0.00 | 0.00 | 0.00 | 99 | 1026.1 |
| 20260902050529 | 62 | 156 | 2.6 | 2.6 | 0.00 | 0.00 | 0.00 | 99 | 1026.1 |
| 20260902050024 | 62 | 113 | 7.8 | 9.6 | 0.00 | 0.00 | 0.00 | 99 | 1026.3 |
| 20260902045519 | 62 | 113 | 7.8 | 9.6 | 0.00 | 0.00 | 0.00 | 99 | 1026.3 |
| 20260902045016 | 61 | 119 | 7.8 | 7.8 | 0.00 | 0.00 | 0.00 | 99 | 1026.2 |
| 20260902044510 | 61 | 119 | 7.8 | 7.8 | 0.00 | 0.00 | 0.00 | 99 | 1026.2 |
| 20260902044006 | 62 | 123 | 5.2 | 6.1 | 0.00 | 0.00 | 0.00 | 99 | 1026.3 |
| 20260902043500 | 62 | 123 | 5.2 | 6.1 | 0.00 | 0.00 | 0.00 | 99 | 1026.3 |
| 20260902042955 | 63 | 121 | 6.1 | 7.0 | 0.00 | 0.00 | 0.00 | 99 | 1026.3 |
| 20260902042455 | 63 | 121 | 6.1 | 7.0 | 0.00 | 0.00 | 0.00 | 99 | 1026.3 |
| 20260902041950 | 63 | 112 | 3.5 | 3.5 | 0.00 | 0.00 | 0.00 | 99 | 1026.3 |
| 20260902041444 | 63 | 112 | 3.5 | 3.5 | 0.00 | 0.00 | 0.00 | 99 | 1026.3 |
| 20260902040939 | 62 | 125 | 5.2 | 7.0 | 0.00 | 0.00 | 0.00 | 99 | 1026.5 |
| 20260902040433 | 62 | 125 | 5.2 | 7.0 | 0.00 | 0.00 | 0.00 | 99 | 1026.5 |
| 20260902035932 | 63 | 159 | 7.0 | 7.8 | 0.00 | 0.00 | 0.00 | 99 | 1026.1 |
| 20260902035427 | 63 | 159 | 7.0 | 7.8 | 0.00 | 0.00 | 0.00 | 99 | 1026.1 |
| 20260902034927 | 64 | 105 | 4.3 | 6.1 | 0.00 | 0.00 | 0.00 | 99 | 1026.3 |
| 20260902034421 | 64 | 105 | 4.3 | 6.1 | 0.00 | 0.00 | 0.00 | 99 | 1026.3 |
| 20260902033921 | 64 | 91 | 3.5 | 5.2 | 0.00 | 0.00 | 0.00 | 99 | 1026.3 |
| 20260902033415 | 64 | 91 | 3.5 | 5.2 | 0.00 | 0.00 | 0.00 | 99 | 1026.3 |
| 20260902032914 | 64 | 137 | 3.5 | 3.5 | 0.00 | 0.00 | 0.00 | 99 | 1026.0 |
| 20260902032408 | 64 | 137 | 3.5 | 3.5 | 0.00 | 0.00 | 0.00 | 99 | 1026.0 |
| 20260902031903 | 65 | 112 | 2.6 | 2.6 | 0.00 | 0.00 | 0.00 | 99 | 1026.2 |
| 20260902031358 | 65 | 112 | 2.6 | 2.6 | 0.00 | 0.00 | 0.00 | 99 | 1026.2 |
| 20260902030855 | 64 | 139 | 0.9 | 0.9 | 0.00 | 0.00 | 0.00 | 99 | 1026.1 |
| 20260902030349 | 64 | 139 | 0.9 | 0.9 | 0.00 | 0.00 | 0.00 | 99 | 1026.1 |
| 20260902025848 | 65 | 161 | 6.1 | 7.0 | 0.00 | 0.00 | 0.00 | 99 | 1025.8 |
| 20260902025344 | 65 | 161 | 6.1 | 7.0 | 0.00 | 0.00 | 0.00 | 99 | 1025.8 |
| 20260902024844 | 65 | 155 | 7.8 | 7.8 | 0.00 | 0.00 | 0.00 | 99 | 1025.7 |
| 20260902024339 | 65 | 155 | 7.8 | 7.8 | 0.00 | 0.00 | 0.00 | 99 | 1025.7 |
| 20260902023834 | 65 | 145 | 7.0 | 7.0 | 0.00 | 0.00 | 0.00 | 99 | 1025.6 |
| 20260902023331 | 65 | 145 | 7.0 | 7.0 | 0.00 | 0.00 | 0.00 | 99 | 1025.6 |
| 20260902022829 | 66 | 82 | 6.1 | 7.8 | 0.00 | 0.00 | 0.00 | 99 | 1025.5 |
| 20260902022325 | 66 | 82 | 6.1 | 7.8 | 0.00 | 0.00 | 0.00 | 99 | 1025.5 |
| 20260902021821 | 65 | 91 | 2.6 | 2.6 | 0.00 | 0.00 | 0.00 | 99 | 1025.2 |
| 20260902021320 | 65 | 91 | 2.6 | 2.6 | 0.00 | 0.00 | 0.00 | 99 | 1025.2 |
| 20260902020816 | 65 | 85 | 4.3 | 5.2 | 0.00 | 0.00 | 0.00 | 99 | 1025.2 |
| 20260902020312 | 65 | 85 | 4.3 | 5.2 | 0.00 | 0.00 | 0.00 | 99 | 1025.2 |
| 20260902015807 | 65 | 74 | 4.3 | 5.2 | 0.00 | 0.00 | 0.00 | 99 | 1025.2 |
| 20260902015306 | 65 | 74 | 4.3 | 5.2 | 0.00 | 0.00 | 0.00 | 99 | 1025.2 |
| 20260902014759 | 66 | 99 | 5.2 | 6.1 | 0.00 | 0.00 | 0.00 | 99 | 1025.2 |
| 20260902014256 | 66 | 99 | 5.2 | 6.1 | 0.00 | 0.00 | 0.00 | 99 | 1025.2 |
| 20260902013754 | 66 | 111 | 9.6 | 11.3 | 0.00 | 0.00 | 0.00 | 99 | 1025.2 |
| 20260902013250 | 66 | 111 | 9.6 | 11.3 | 0.00 | 0.00 | 0.00 | 99 | 1025.2 |
| 20260902012745 | 66 | 117 | 12.2 | 13.9 | 0.00 | 0.00 | 0.00 | 99 | 1025.1 |
| 20260902012241 | 66 | 117 | 12.2 | 13.9 | 0.00 | 0.00 | 0.00 | 99 | 1025.1 |
| 20260902011736 | 66 | 123 | 14.8 | 19.1 | 0.00 | 0.00 | 0.00 | 99 | 1024.8 |
| 20260902011236 | 66 | 123 | 14.8 | 19.1 | 0.00 | 0.00 | 0.00 | 99 | 1024.8 |
| 20260902010735 | 67 | 89 | 9.6 | 11.3 | 0.00 | 0.00 | 0.00 | 99 | 1025.1 |
| 20260902010231 | 67 | 89 | 9.6 | 11.3 | 0.00 | 0.00 | 0.00 | 99 | 1025.1 |
| 20260902005729 | 68 | 98 | 3.5 | 5.2 | 0.00 | 0.00 | 0.00 | 99 | 1025.3 |
| 20260902005225 | 68 | 98 | 3.5 | 5.2 | 0.00 | 0.00 | 0.00 | 99 | 1025.3 |
| 20260902004725 | 68 | 117 | 0.9 | 1.7 | 0.00 | 0.00 | 0.00 | 99 | 1025.6 |
| 20260902004220 | 68 | 117 | 0.9 | 1.7 | 0.00 | 0.00 | 0.00 | 99 | 1025.6 |
| 20260902003715 | 68 | 79 | 9.6 | 13.0 | 0.00 | 0.00 | 0.00 | 99 | 1025.5 |
| 20260902003210 | 68 | 79 | 9.6 | 13.0 | 0.00 | 0.00 | 0.00 | 99 | 1025.5 |
| 20260902002706 | 68 | 117 | 9.6 | 11.3 | 0.00 | 0.00 | 0.00 | 99 | 1025.6 |
| 20260902002200 | 66 | 119 | 12.2 | 13.9 | 0.00 | 0.00 | 0.00 | 99 | 1025.7 |
| 20260902001656 | 66 | 119 | 12.2 | 13.9 | 0.00 | 0.00 | 0.00 | 99 | 1025.7 |
| 20260902001155 | 67 | 77 | 13.9 | 14.8 | 0.00 | 0.00 | 0.00 | 99 | 1025.8 |
| 20260902000650 | 67 | 77 | 13.9 | 14.8 | 0.00 | 0.00 | 0.00 | 99 | 1025.8 |
| 20260902000145 | 68 | 62 | 12.2 | 13.9 | 0.00 | 0.00 | 0.00 | 99 | 1025.7 |
| 20260901235639 | 68 | 62 | 12.2 | 13.9 | 0.00 | 0.00 | 0.00 | 99 | 1025.7 |
| 20260901235135 | 69 | 64 | 5.2 | 6.1 | 0.00 | 0.00 | 0.00 | 99 | 1026.0 |
| 20260901234634 | 69 | 64 | 5.2 | 6.1 | 0.00 | 0.00 | 0.00 | 99 | 1026.0 |
| 20260901234129 | 68 | 68 | 10.4 | 12.2 | 0.00 | 0.00 | 0.00 | 99 | 1026.1 |
| 20260901233624 | 68 | 68 | 10.4 | 12.2 | 0.00 | 0.00 | 0.00 | 99 | 1026.1 |
| 20260901233120 | 65 | 107 | 7.0 | 7.0 | 0.00 | 0.00 | 0.00 | 99 | 1026.0 |
| 20260901232620 | 65 | 107 | 7.0 | 7.0 | 0.00 | 0.00 | 0.00 | 99 | 1026.0 |
| 20260901232115 | 63 | 154 | 10.4 | 13.0 | 0.00 | 0.00 | 0.00 | 99 | 1026.1 |
| 20260901231612 | 63 | 154 | 10.4 | 13.0 | 0.00 | 0.00 | 0.00 | 99 | 1026.1 |
| 20260901231108 | 63 | 119 | 9.6 | 11.3 | 0.00 | 0.00 | 0.00 | 99 | 1026.3 |
| 20260901230603 | 63 | 119 | 9.6 | 11.3 | 0.00 | 0.00 | 0.00 | 99 | 1026.3 |
| 20260901230057 | 64 | 75 | 9.6 | 11.3 | 0.00 | 0.00 | 0.00 | 99 | 1026.5 |
| 20260901225552 | 64 | 75 | 9.6 | 11.3 | 0.00 | 0.00 | 0.00 | 99 | 1026.5 |
| 20260901225052 | 62 | 156 | 8.7 | 9.6 | 0.00 | 0.00 | 0.00 | 99 | 1026.1 |
| 20260901224548 | 62 | 156 | 8.7 | 9.6 | 0.00 | 0.00 | 0.00 | 99 | 1026.1 |
| 20260901224044 | 60 | 147 | 12.2 | 13.0 | 0.00 | 0.00 | 0.00 | 99 | 1026.3 |
| 20260901223539 | 60 | 147 | 12.2 | 13.0 | 0.00 | 0.00 | 0.00 | 99 | 1026.3 |
| 20260901223035 | 60 | 91 | 14.8 | 18.2 | 0.00 | 0.00 | 0.00 | 99 | 1026.2 |
| 20260901222531 | 60 | 91 | 14.8 | 18.2 | 0.00 | 0.00 | 0.00 | 99 | 1026.2 |
| 20260901222026 | 60 | 101 | 20.9 | 26.9 | 0.00 | 0.00 | 0.00 | 99 | 1025.8 |
| 20260901221522 | 60 | 101 | 20.9 | 26.9 | 0.00 | 0.00 | 0.00 | 99 | 1025.8 |
| 20260901221012 | 66 | 138 | 24.3 | 26.9 | 0.00 | 0.00 | 0.00 | 99 | 1026.0 |
| 20260901220511 | 66 | 138 | 24.3 | 26.9 | 0.00 | 0.00 | 0.00 | 99 | 1026.0 |
| 20260901220010 | 73 | 82 | 7.8 | 8.7 | 0.00 | 0.00 | 0.00 | 99 | 1025.3 |
| 20260901215508 | 73 | 82 | 7.8 | 8.7 | 0.00 | 0.00 | 0.00 | 99 | 1025.3 |
| 20260901215003 | 74 | 140 | 9.6 | 9.6 | 0.00 | 0.00 | 0.00 | 99 | 1025.2 |
| 20260901214501 | 74 | 140 | 9.6 | 9.6 | 0.00 | 0.00 | 0.00 | 99 | 1025.2 |
| 20260901213955 | 76 | 98 | 7.8 | 9.6 | 0.00 | 0.00 | 0.00 | 99 | 1025.2 |
| 20260901213451 | 76 | 98 | 7.8 | 9.6 | 0.00 | 0.00 | 0.00 | 99 | 1025.2 |
| 20260901212949 | 76 | 105 | 2.6 | 2.6 | 0.00 | 0.00 | 0.00 | 99 | 1025.2 |
| 20260901212445 | 76 | 105 | 2.6 | 2.6 | 0.00 | 0.00 | 0.00 | 99 | 1025.2 |
| 20260901211941 | 75 | 105 | 2.6 | 3.5 | 0.00 | 0.00 | 0.00 | 99 | 1025.2 |
| 20260901211436 | 75 | 105 | 2.6 | 3.5 | 0.00 | 0.00 | 0.00 | 99 | 1025.2 |
| 20260901210932 | 76 | 155 | 3.5 | 8.7 | 0.00 | 0.00 | 0.00 | 99 | 1025.7 |
| 20260901210428 | 76 | 155 | 3.5 | 8.7 | 0.00 | 0.00 | 0.00 | 99 | 1025.7 |
| 20260901205924 | 73 | 343 | 5.2 | 6.1 | 0.00 | 0.00 | 0.00 | 99 | 1025.7 |
| 20260901205419 | 73 | 343 | 5.2 | 6.1 | 0.00 | 0.00 | 0.00 | 99 | 1025.7 |
| 20260901204913 | 73 | 38 | 4.3 | 6.1 | 0.00 | 0.00 | 0.00 | 99 | 1025.7 |
| 20260901204410 | 73 | 38 | 4.3 | 6.1 | 0.00 | 0.00 | 0.00 | 99 | 1025.7 |
| 20260901203910 | 73 | 139 | 1.7 | 2.6 | 0.00 | 0.00 | 0.00 | 99 | 1025.8 |
| 20260901203404 | 73 | 139 | 1.7 | 2.6 | 0.00 | 0.00 | 0.00 | 99 | 1025.8 |
| 20260901202859 | 72 | 67 | 6.1 | 7.0 | 0.00 | 0.00 | 0.00 | 99 | 1026.1 |
| 20260901202354 | 72 | 67 | 6.1 | 7.0 | 0.00 | 0.00 | 0.00 | 99 | 1026.1 |
| 20260901201851 | 73 | 34 | 5.2 | 9.6 | 0.00 | 0.00 | 0.00 | 99 | 1026.0 |
| 20260901201350 | 73 | 34 | 5.2 | 9.6 | 0.00 | 0.00 | 0.00 | 99 | 1026.0 |
| 20260901200844 | 73 | 315 | 3.5 | 5.2 | 0.00 | 0.00 | 0.00 | 99 | 1026.0 |
| 20260901200339 | 73 | 315 | 3.5 | 5.2 | 0.00 | 0.00 | 0.00 | 99 | 1026.0 |
| 20260901195837 | 75 | 235 | 3.5 | 6.1 | 0.00 | 0.00 | 0.00 | 99 | 1026.1 |
| 20260901195330 | 75 | 235 | 3.5 | 6.1 | 0.00 | 0.00 | 0.00 | 99 | 1026.1 |
| 20260901194827 | 72 | 19 | 3.5 | 5.2 | 0.00 | 0.00 | 0.00 | 99 | 1025.8 |
| 20260901194321 | 72 | 19 | 3.5 | 5.2 | 0.00 | 0.00 | 0.00 | 99 | 1025.8 |
| 20260901193818 | 69 | 57 | 13.0 | 16.5 | 0.00 | 0.00 | 0.00 | 99 | 1026.1 |
| 20260901193316 | 69 | 57 | 13.0 | 16.5 | 0.00 | 0.00 | 0.00 | 99 | 1026.1 |
| 20260901192811 | 69 | 33 | 8.7 | 16.5 | 0.00 | 0.00 | 0.00 | 99 | 1025.6 |
| 20260901192307 | 69 | 33 | 8.7 | 16.5 | 0.00 | 0.00 | 0.00 | 99 | 1025.6 |
| 20260901191802 | 74 | 144 | 7.8 | 11.3 | 0.00 | 0.00 | 0.00 | 99 | 1025.8 |
| 20260901191258 | 74 | 144 | 7.8 | 11.3 | 0.00 | 0.00 | 0.00 | 99 | 1025.8 |
| 20260901190754 | 75 | 63 | 7.0 | 12.2 | 0.00 | 0.00 | 0.00 | 99 | 1026.1 |
| 20260901190247 | 75 | 63 | 7.0 | 12.2 | 0.00 | 0.00 | 0.00 | 99 | 1026.1 |
| 20260901185745 | 74 | 67 | 7.0 | 8.7 | 0.00 | 0.00 | 0.00 | 99 | 1026.1 |
| 20260901185240 | 74 | 67 | 7.0 | 8.7 | 0.00 | 0.00 | 0.00 | 99 | 1026.1 |
| 20260901184735 | 72 | 40 | 4.3 | 8.7 | 0.00 | 0.00 | 0.00 | 99 | 1026.5 |
| 20260901184230 | 72 | 40 | 4.3 | 8.7 | 0.00 | 0.00 | 0.00 | 99 | 1026.5 |
| 20260901183726 | 71 | 68 | 9.6 | 13.0 | 0.00 | 0.00 | 0.00 | 99 | 1026.5 |
| 20260901183225 | 71 | 68 | 9.6 | 13.0 | 0.00 | 0.00 | 0.00 | 99 | 1026.5 |
| 20260901182722 | 70 | 72 | 12.2 | 13.9 | 0.00 | 0.00 | 0.00 | 99 | 1026.5 |
| 20260901182220 | 70 | 72 | 12.2 | 13.9 | 0.00 | 0.00 | 0.00 | 99 | 1026.5 |
| 20260901181716 | 70 | 51 | 9.6 | 13.0 | 0.00 | 0.00 | 0.00 | 99 | 1026.7 |
| 20260901181210 | 70 | 51 | 9.6 | 13.0 | 0.00 | 0.00 | 0.00 | 99 | 1026.7 |
| 20260901180709 | 69 | 87 | 7.8 | 8.7 | 0.00 | 0.00 | 0.00 | 99 | 1026.5 |
| 20260901180208 | 69 | 87 | 7.8 | 8.7 | 0.00 | 0.00 | 0.00 | 99 | 1026.5 |
| 20260901175708 | 68 | 144 | 12.2 | 13.0 | 0.00 | 0.00 | 0.00 | 99 | 1026.6 |
| 20260901175208 | 68 | 144 | 12.2 | 13.0 | 0.00 | 0.00 | 0.00 | 99 | 1026.6 |
| 20260901174703 | 68 | 160 | 12.2 | 14.8 | 0.00 | 0.00 | 0.00 | 99 | 1026.5 |
| 20260901174159 | 68 | 160 | 12.2 | 14.8 | 0.00 | 0.00 | 0.00 | 99 | 1026.5 |
| 20260901173654 | 67 | 144 | 8.7 | 12.2 | 0.00 | 0.00 | 0.00 | 99 | 1026.7 |
| 20260901173150 | 67 | 144 | 8.7 | 12.2 | 0.00 | 0.00 | 0.00 | 99 | 1026.7 |
| 20260901172645 | 67 | 131 | 11.3 | 12.2 | 0.00 | 0.00 | 0.00 | 99 | 1026.6 |
| 20260901172143 | 67 | 131 | 11.3 | 12.2 | 0.00 | 0.00 | 0.00 | 99 | 1026.6 |
| 20260901171637 | 67 | 65 | 11.3 | 13.9 | 0.00 | 0.00 | 0.00 | 99 | 1026.6 |
| 20260901171136 | 67 | 65 | 11.3 | 13.9 | 0.00 | 0.00 | 0.00 | 99 | 1026.6 |
| 20260901170631 | 67 | 84 | 2.6 | 5.2 | 0.00 | 0.00 | 0.00 | 99 | 1026.5 |
| 20260901170126 | 67 | 84 | 2.6 | 5.2 | 0.00 | 0.00 | 0.00 | 99 | 1026.5 |
| 20260901165625 | 67 | 69 | 6.1 | 8.7 | 0.00 | 0.00 | 0.00 | 99 | 1026.6 |
| 20260901165120 | 67 | 69 | 6.1 | 8.7 | 0.00 | 0.00 | 0.00 | 99 | 1026.6 |
| 20260901164616 | 69 | 147 | 7.8 | 11.3 | 0.00 | 0.00 | 0.00 | 99 | 1026.6 |
| 20260901164110 | 68 | 36 | 6.1 | 7.8 | 0.00 | 0.00 | 0.00 | 99 | 1026.3 |
| 20260901163606 | 68 | 36 | 6.1 | 7.8 | 0.00 | 0.00 | 0.00 | 99 | 1026.3 |
| 20260901163105 | 66 | 54 | 6.1 | 7.8 | 0.00 | 0.00 | 0.00 | 99 | 1026.5 |
| 20260901162601 | 66 | 54 | 6.1 | 7.8 | 0.00 | 0.00 | 0.00 | 99 | 1026.5 |
| 20260901162100 | 66 | 66 | 9.6 | 12.2 | 0.00 | 0.00 | 0.00 | 99 | 1026.6 |
| 20260901161559 | 66 | 66 | 9.6 | 12.2 | 0.00 | 0.00 | 0.00 | 99 | 1026.6 |
| 20260901161053 | 68 | 35 | 3.5 | 7.8 | 0.00 | 0.00 | 0.00 | 99 | 1026.5 |
| 20260901160549 | 68 | 35 | 3.5 | 7.8 | 0.00 | 0.00 | 0.00 | 99 | 1026.5 |
| 20260901160044 | 67 | 279 | 2.6 | 2.6 | 0.00 | 0.00 | 0.00 | 99 | 1026.5 |
| 20260901155543 | 67 | 279 | 2.6 | 2.6 | 0.00 | 0.00 | 0.00 | 99 | 1026.5 |
| 20260901155039 | 66 | 114 | 5.2 | 6.1 | 0.00 | 0.00 | 0.00 | 99 | 1026.6 |
| 20260901154533 | 66 | 114 | 5.2 | 6.1 | 0.00 | 0.00 | 0.00 | 99 | 1026.6 |
| 20260901154028 | 64 | 131 | 0.0 | 0.0 | 0.00 | 0.00 | 0.00 | 99 | 1026.6 |
| 20260901153523 | 64 | 131 | 0.0 | 0.0 | 0.00 | 0.00 | 0.00 | 99 | 1026.6 |
| 20260901153022 | 64 | 120 | 0.9 | 0.9 | 0.00 | 0.00 | 0.00 | 99 | 1026.6 |
| 20260901152517 | 64 | 120 | 0.9 | 0.9 | 0.00 | 0.00 | 0.00 | 99 | 1026.6 |
| 20260901152017 | 62 | 47 | 4.3 | 6.1 | 0.00 | 0.00 | 0.00 | 99 | 1026.6 |
| 20260901151512 | 62 | 47 | 4.3 | 6.1 | 0.00 | 0.00 | 0.00 | 99 | 1026.6 |
| 20260901151011 | 60 | 143 | 1.7 | 3.5 | 0.00 | 0.00 | 0.00 | 99 | 1026.7 |
| 20260901150509 | 60 | 143 | 1.7 | 3.5 | 0.00 | 0.00 | 0.00 | 99 | 1026.7 |
| 20260901150008 | 60 | 97 | 2.6 | 3.5 | 0.00 | 0.00 | 0.00 | 99 | 1026.8 |
| 20260901145506 | 60 | 97 | 2.6 | 3.5 | 0.00 | 0.00 | 0.00 | 99 | 1026.8 |
| 20260901145001 | 60 | 88 | 5.2 | 6.1 | 0.00 | 0.00 | 0.00 | 99 | 1027.0 |
| 20260901144456 | 60 | 88 | 5.2 | 6.1 | 0.00 | 0.00 | 0.00 | 99 | 1027.0 |
| 20260901143951 | 60 | 119 | 5.2 | 6.1 | 0.00 | 0.00 | 0.00 | 99 | 1027.0 |
| 20260901143447 | 60 | 119 | 5.2 | 6.1 | 0.00 | 0.00 | 0.00 | 99 | 1027.0 |
| 20260901142943 | 59 | 112 | 0.9 | 0.9 | 0.00 | 0.00 | 0.00 | 99 | 1027.2 |
| 20260901142438 | 59 | 112 | 0.9 | 0.9 | 0.00 | 0.00 | 0.00 | 99 | 1027.2 |
| 20260901141933 | 59 | 65 | 1.7 | 1.7 | 0.00 | 0.00 | 0.00 | 99 | 1027.1 |
| 20260901141427 | 59 | 65 | 1.7 | 1.7 | 0.00 | 0.00 | 0.00 | 99 | 1027.1 |
| 20260901140922 | 59 | 133 | 0.9 | 1.7 | 0.00 | 0.00 | 0.00 | 99 | 1026.8 |
| 20260901140420 | 59 | 133 | 0.9 | 1.7 | 0.00 | 0.00 | 0.00 | 99 | 1026.8 |
| 20260901135915 | 59 | 157 | 6.1 | 7.8 | 0.00 | 0.00 | 0.00 | 99 | 1026.8 |
| 20260901135410 | 59 | 157 | 6.1 | 7.8 | 0.00 | 0.00 | 0.00 | 99 | 1026.8 |
| 20260901134906 | 57 | 147 | 7.0 | 7.8 | 0.00 | 0.00 | 0.00 | 99 | 1026.6 |
| 20260901134401 | 57 | 147 | 7.0 | 7.8 | 0.00 | 0.00 | 0.00 | 99 | 1026.6 |
| 20260901133901 | 58 | 171 | 7.8 | 8.7 | 0.00 | 0.00 | 0.00 | 99 | 1026.5 |
| 20260901133359 | 58 | 171 | 7.8 | 8.7 | 0.00 | 0.00 | 0.00 | 99 | 1026.5 |
| 20260901132858 | 58 | 115 | 2.6 | 2.6 | 0.00 | 0.00 | 0.00 | 99 | 1026.5 |
| 20260901132353 | 58 | 115 | 2.6 | 2.6 | 0.00 | 0.00 | 0.00 | 99 | 1026.5 |
| 20260901131852 | 58 | 105 | 2.6 | 2.6 | 0.00 | 0.00 | 0.00 | 99 | 1026.2 |
| 20260901131352 | 58 | 105 | 2.6 | 2.6 | 0.00 | 0.00 | 0.00 | 99 | 1026.2 |
| 20260901130848 | 58 | 156 | 1.7 | 1.7 | 0.00 | 0.00 | 0.00 | 99 | 1026.1 |
| 20260901130342 | 58 | 156 | 1.7 | 1.7 | 0.00 | 0.00 | 0.00 | 99 | 1026.1 |
| 20260901125840 | 56 | 133 | 0.0 | 0.9 | 0.00 | 0.00 | 0.00 | 99 | 1026.0 |
| 20260901125334 | 56 | 133 | 0.0 | 0.9 | 0.00 | 0.00 | 0.00 | 99 | 1026.0 |
| 20260901124829 | 55 | 141 | 0.9 | 0.9 | 0.00 | 0.00 | 0.00 | 99 | 1025.8 |
| 20260901124325 | 55 | 141 | 0.9 | 0.9 | 0.00 | 0.00 | 0.00 | 99 | 1025.8 |
| 20260901123824 | 57 | 58 | 1.7 | 1.7 | 0.00 | 0.00 | 0.00 | 99 | 1025.7 |
| 20260901123319 | 57 | 58 | 1.7 | 1.7 | 0.00 | 0.00 | 0.00 | 99 | 1025.7 |
| 20260901122818 | 58 | 74 | 6.1 | 7.0 | 0.00 | 0.00 | 0.00 | 99 | 1025.7 |
| 20260901122317 | 58 | 74 | 6.1 | 7.0 | 0.00 | 0.00 | 0.00 | 99 | 1025.7 |
| 20260901121817 | 55 | 108 | 5.2 | 6.1 | 0.00 | 0.00 | 0.00 | 99 | 1025.8 |
| 20260901121312 | 55 | 108 | 5.2 | 6.1 | 0.00 | 0.00 | 0.00 | 99 | 1025.8 |
| 20260901120807 | 55 | 138 | 2.6 | 2.6 | 0.00 | 0.00 | 0.00 | 99 | 1025.8 |
| 20260901120307 | 55 | 138 | 2.6 | 2.6 | 0.00 | 0.00 | 0.00 | 99 | 1025.8 |
| 20260901115802 | 56 | 116 | 2.6 | 2.6 | 0.00 | 0.00 | 0.00 | 99 | 1025.8 |
| 20260901115258 | 56 | 116 | 2.6 | 2.6 | 0.00 | 0.00 | 0.00 | 99 | 1025.8 |
| 20260901114755 | 55 | 80 | 3.5 | 3.5 | 0.00 | 0.00 | 0.00 | 99 | 1025.7 |
| 20260901114250 | 55 | 80 | 3.5 | 3.5 | 0.00 | 0.00 | 0.00 | 99 | 1025.7 |
| 20260901113749 | 55 | 109 | 4.3 | 5.2 | 0.00 | 0.00 | 0.00 | 99 | 1025.6 |
| 20260901113244 | 55 | 109 | 4.3 | 5.2 | 0.00 | 0.00 | 0.00 | 99 | 1025.6 |
| 20260901112744 | 55 | 107 | 3.5 | 5.2 | 0.00 | 0.00 | 0.00 | 99 | 1025.6 |
| 20260901112243 | 55 | 107 | 3.5 | 5.2 | 0.00 | 0.00 | 0.00 | 99 | 1025.6 |
| 20260901111738 | 56 | 108 | 5.2 | 6.1 | 0.00 | 0.00 | 0.00 | 99 | 1025.3 |
| 20260901111237 | 56 | 108 | 5.2 | 6.1 | 0.00 | 0.00 | 0.00 | 99 | 1025.3 |
| 20260901110731 | 55 | 151 | 5.2 | 5.2 | 0.00 | 0.00 | 0.00 | 99 | 1025.7 |
| 20260901110226 | 55 | 151 | 5.2 | 5.2 | 0.00 | 0.00 | 0.00 | 99 | 1025.7 |
| 20260901105723 | 56 | 85 | 5.2 | 7.0 | 0.00 | 0.00 | 0.00 | 99 | 1025.8 |
| 20260901105223 | 56 | 85 | 5.2 | 7.0 | 0.00 | 0.00 | 0.00 | 99 | 1025.8 |
| 20260901104719 | 56 | 175 | 6.1 | 7.0 | 0.00 | 0.00 | 0.00 | 99 | 1025.7 |
| 20260901104214 | 56 | 175 | 6.1 | 7.0 | 0.00 | 0.00 | 0.00 | 99 | 1025.7 |
| 20260901103713 | 58 | 119 | 3.5 | 3.5 | 0.00 | 0.00 | 0.00 | 99 | 1025.7 |
| 20260901103209 | 58 | 119 | 3.5 | 3.5 | 0.00 | 0.00 | 0.00 | 99 | 1025.7 |
| 20260901102703 | 57 | 98 | 0.9 | 0.9 | 0.00 | 0.00 | 0.00 | 99 | 1025.6 |
| 20260901102202 | 57 | 98 | 0.9 | 0.9 | 0.00 | 0.00 | 0.00 | 99 | 1025.6 |
| 20260901101659 | 57 | 72 | 1.7 | 2.6 | 0.00 | 0.00 | 0.00 | 99 | 1026.0 |
| 20260901101158 | 57 | 72 | 1.7 | 2.6 | 0.00 | 0.00 | 0.00 | 99 | 1026.0 |
| 20260901100653 | 57 | 68 | 0.9 | 1.7 | 0.00 | 0.00 | 0.00 | 99 | 1025.7 |
| 20260901100148 | 57 | 68 | 0.9 | 1.7 | 0.00 | 0.00 | 0.00 | 99 | 1025.7 |
| 20260901095646 | 56 | 139 | 1.7 | 1.7 | 0.00 | 0.00 | 0.00 | 99 | 1025.8 |
| 20260901095143 | 56 | 139 | 1.7 | 1.7 | 0.00 | 0.00 | 0.00 | 99 | 1025.8 |
| 20260901094638 | 57 | 106 | 0.9 | 0.9 | 0.00 | 0.00 | 0.00 | 99 | 1026.1 |
| 20260901094133 | 57 | 106 | 0.9 | 0.9 | 0.00 | 0.00 | 0.00 | 99 | 1026.1 |
| 20260901093627 | 57 | 102 | 0.9 | 0.9 | 0.00 | 0.00 | 0.00 | 99 | 1026.1 |
| 20260901093126 | 57 | 102 | 0.9 | 0.9 | 0.00 | 0.00 | 0.00 | 99 | 1026.1 |
| 20260901092622 | 58 | 4 | 3.5 | 3.5 | 0.00 | 0.00 | 0.00 | 99 | 1026.2 |
| 20260901092119 | 58 | 4 | 3.5 | 3.5 | 0.00 | 0.00 | 0.00 | 99 | 1026.2 |
| 20260901091614 | 58 | 294 | 1.7 | 1.7 | 0.00 | 0.00 | 0.00 | 99 | 1026.5 |
| 20260901091109 | 58 | 294 | 1.7 | 1.7 | 0.00 | 0.00 | 0.00 | 99 | 1026.5 |
| 20260901090609 | 58 | 143 | 0.0 | 0.0 | 0.00 | 0.00 | 0.00 | 99 | 1026.2 |
| 20260901090104 | 58 | 143 | 0.0 | 0.0 | 0.00 | 0.00 | 0.00 | 99 | 1026.2 |
| 20260901085559 | 58 | 254 | 3.5 | 3.5 | 0.00 | 0.00 | 0.00 | 99 | 1026.5 |
| 20260901085055 | 58 | 254 | 3.5 | 3.5 | 0.00 | 0.00 | 0.00 | 99 | 1026.5 |
| 20260901084551 | 57 | 295 | 1.7 | 1.7 | 0.00 | 0.00 | 0.00 | 99 | 1026.5 |
| 20260901084048 | 57 | 295 | 1.7 | 1.7 | 0.00 | 0.00 | 0.00 | 99 | 1026.5 |
| 20260901083542 | 58 | 130 | 2.6 | 3.5 | 0.00 | 0.00 | 0.00 | 99 | 1026.6 |
| 20260901083041 | 58 | 130 | 2.6 | 3.5 | 0.00 | 0.00 | 0.00 | 99 | 1026.6 |
| 20260901082535 | 59 | 339 | 5.2 | 6.1 | 0.00 | 0.00 | 0.00 | 99 | 1027.0 |
| 20260901082031 | 59 | 339 | 5.2 | 6.1 | 0.00 | 0.00 | 0.00 | 99 | 1027.0 |
| 20260901081526 | 59 | 349 | 4.3 | 5.2 | 0.00 | 0.00 | 0.00 | 99 | 1027.0 |
| 20260901081021 | 60 | 101 | 0.9 | 0.9 | 0.00 | 0.00 | 0.00 | 99 | 1027.1 |
| 20260901080520 | 60 | 101 | 0.9 | 0.9 | 0.00 | 0.00 | 0.00 | 99 | 1027.1 |
| 20260901080019 | 58 | 130 | 5.2 | 6.1 | 0.00 | 0.00 | 0.00 | 99 | 1027.3 |
| 20260901075515 | 58 | 130 | 5.2 | 6.1 | 0.00 | 0.00 | 0.00 | 99 | 1027.3 |
| 20260901075009 | 59 | 147 | 3.5 | 5.2 | 0.00 | 0.00 | 0.00 | 99 | 1027.3 |
| 20260901074508 | 59 | 147 | 3.5 | 5.2 | 0.00 | 0.00 | 0.00 | 99 | 1027.3 |
| 20260901074004 | 57 | 86 | 3.5 | 3.5 | 0.00 | 0.00 | 0.00 | 99 | 1027.1 |
| 20260901073501 | 57 | 86 | 3.5 | 3.5 | 0.00 | 0.00 | 0.00 | 99 | 1027.1 |
| 20260901072955 | 57 | 66 | 4.3 | 5.2 | 0.00 | 0.00 | 0.00 | 99 | 1027.3 |
| 20260901072450 | 57 | 66 | 4.3 | 5.2 | 0.00 | 0.00 | 0.00 | 99 | 1027.3 |
| 20260901071944 | 55 | 89 | 6.1 | 7.0 | 0.00 | 0.00 | 0.00 | 99 | 1027.2 |
| 20260901071443 | 55 | 89 | 6.1 | 7.0 | 0.00 | 0.00 | 0.00 | 99 | 1027.2 |
| 20260901070938 | 58 | 193 | 1.7 | 1.7 | 0.00 | 0.00 | 0.00 | 99 | 1027.0 |
| 20260901070433 | 58 | 193 | 1.7 | 1.7 | 0.00 | 0.00 | 0.00 | 99 | 1027.0 |
| 20260901065932 | 58 | 97 | 0.9 | 1.7 | 0.00 | 0.00 | 0.00 | 99 | 1027.1 |
| 20260901065428 | 58 | 97 | 0.9 | 1.7 | 0.00 | 0.00 | 0.00 | 99 | 1027.1 |
| 20260901064922 | 57 | 94 | 1.7 | 2.6 | 0.00 | 0.00 | 0.00 | 99 | 1027.1 |
| 20260901064419 | 57 | 94 | 1.7 | 2.6 | 0.00 | 0.00 | 0.00 | 99 | 1027.1 |
| 20260901063915 | 56 | 127 | 5.2 | 6.1 | 0.00 | 0.00 | 0.00 | 99 | 1027.3 |
| 20260901063412 | 56 | 127 | 5.2 | 6.1 | 0.00 | 0.00 | 0.00 | 99 | 1027.3 |
| 20260901062902 | 57 | 101 | 3.5 | 3.5 | 0.00 | 0.00 | 0.00 | 99 | 1027.2 |
| 20260901061853 | 56 | 139 | 4.3 | 6.1 | 0.00 | 0.00 | 0.00 | 99 | 1027.2 |
| 20260901061349 | 56 | 139 | 4.3 | 6.1 | 0.00 | 0.00 | 0.00 | 99 | 1027.2 |
| 20260901060843 | 56 | 153 | 5.2 | 6.1 | 0.00 | 0.00 | 0.00 | 99 | 1027.1 |
| 20260901060339 | 56 | 153 | 5.2 | 6.1 | 0.00 | 0.00 | 0.00 | 99 | 1027.1 |
| 20260901055833 | 56 | 130 | 7.0 | 7.8 | 0.00 | 0.06 | 0.06 | 99 | 1027.1 |
| 20260901055330 | 56 | 130 | 7.0 | 7.8 | 0.00 | 0.06 | 0.06 | 99 | 1027.1 |
| 20260901054826 | 56 | 140 | 6.1 | 7.0 | 0.00 | 0.06 | 0.06 | 99 | 1027.1 |
| 20260901054323 | 56 | 140 | 6.1 | 7.0 | 0.00 | 0.06 | 0.06 | 99 | 1027.1 |
| 20260901053819 | 56 | 149 | 5.2 | 7.0 | 0.00 | 0.06 | 0.06 | 99 | 1027.2 |
| 20260901053313 | 56 | 149 | 5.2 | 7.0 | 0.00 | 0.06 | 0.06 | 99 | 1027.2 |
| 20260901052809 | 56 | 82 | 3.5 | 3.5 | 0.00 | 0.06 | 0.06 | 99 | 1027.5 |
| 20260901052307 | 56 | 82 | 3.5 | 3.5 | 0.00 | 0.06 | 0.06 | 99 | 1027.5 |
| 20260901051757 | 56 | 123 | 4.3 | 5.2 | 0.00 | 0.06 | 0.06 | 99 | 1027.3 |